Litchfield, IL

9:33 AM CST on January 16, 2017 (GMT -0600)
Litchfield

Weather History for K3LF - April, 2014

Change the Weather History Date:

Sunday, April 20, 2014

  Actual Average (KALN) Record (KALN)
Temperature  
Mean Temperature 62 °F -  
Max Temperature 76 °F 64 °F 78 °F (2004)
Min Temperature 50 °F 47 °F 31 °F (2013)
Degree Days  
Heating Degree Days 2    
Growing Degree Days 12 (Base 50)    
Moisture  
Dew Point 43 °F    
Average Humidity 50    
Maximum Humidity 72    
Minimum Humidity 33    
Precipitation  
Precipitation 0.00 in - - ()
Sea Level Pressure  
Sea Level Pressure 30.15 in    
Wind  
Wind Speed 0 mph (South)    
Max Wind Speed 8 mph    
Max Gust Speed 22 mph    
Visibility 10 miles    
Events      
Averages and records for this station are not official NWS values.
T = Trace of Precipitation, MM = Missing Value Source: NWS Daily Summary

Daily Weather History Graph

Daily Weather History Graph

Search for Another Location

Airport or City:

Trip Planner

Search our weather history database for the weather conditions in past years. The results will help you decide how hot, cold, wet, or windy it might be!

Date:

Astronomy

Apr. 20, 2014 Rise Set
Actual Time 6:14 AM CDT 7:41 PM CDT
Civil Twilight 5:46 AM CDT 8:09 PM CDT
Nautical Twilight 5:13 AM CDT 8:42 PM CDT
Astronomical Twilight 4:37 AM CDT 9:18 PM CDT
Moon 12:19 AM CDT (4/20) 10:36 AM CDT (4/20)
Length of Visible Light 14h 22m
Length of Day
13h 26m
Waning Gibbous, 68% of the Moon is Illuminated
Apr 20
Waning Gibbous
Apr 22
Last Quarter
Apr 29
New
May 6
First Quarter
May 14
Full

Hourly Weather History & Observations

Time (CDT) Temp. Dew Point Humidity Pressure Visibility Wind Dir Wind Speed Gust Speed Precip Events Conditions
12:15 AM 57.2 °F 38.3 °F 49% 30.19 in 10.0 mi Calm Calm - N/A   Clear
12:35 AM 56.7 °F 37.9 °F 50% 30.19 in 10.0 mi Calm Calm - N/A   Clear
12:55 AM 55.8 °F 38.3 °F 52% 30.19 in 10.0 mi Calm Calm - N/A   Clear
1:15 AM 55.8 °F 38.1 °F 52% 30.19 in 10.0 mi Calm Calm - N/A   Clear
1:35 AM 53.2 °F 39.2 °F 59% 30.18 in 10.0 mi Calm Calm - N/A   Clear
1:55 AM 52.9 °F 39.2 °F 60% 30.18 in 10.0 mi Calm Calm - N/A   Clear
2:15 AM 52.7 °F 39.0 °F 60% 30.19 in 10.0 mi Calm Calm - N/A   Clear
2:35 AM 50.9 °F 39.7 °F 66% 30.19 in 10.0 mi Calm Calm - N/A   Clear
2:55 AM 50.4 °F 41.5 °F 72% 30.19 in 10.0 mi Calm Calm - N/A   Clear
3:15 AM 51.6 °F 39.4 °F 63% 30.19 in 10.0 mi Calm Calm - N/A   Clear
3:35 AM 50.7 °F 39.7 °F 66% 30.20 in 10.0 mi Calm Calm - N/A   Clear
3:55 AM 50.5 °F 39.7 °F 66% 30.20 in 10.0 mi Calm Calm - N/A   Clear
4:15 AM 52.0 °F 38.7 °F 60% 30.20 in 10.0 mi Calm Calm - N/A   Clear
4:35 AM 51.4 °F 38.5 °F 61% 30.20 in 10.0 mi Calm Calm - N/A   Clear
4:55 AM 50.9 °F 38.3 °F 62% 30.20 in 10.0 mi Calm Calm - N/A   Clear
5:15 AM 50.5 °F 38.5 °F 63% 30.20 in 10.0 mi Calm Calm - N/A   Clear
5:35 AM 50.9 °F 38.5 °F 62% 30.20 in 10.0 mi Calm Calm - N/A   Clear
5:55 AM 50.9 °F 38.7 °F 63% 30.20 in 10.0 mi Calm Calm - N/A   Clear
6:15 AM 50.7 °F 38.7 °F 63% 30.20 in 10.0 mi Calm Calm - N/A   Clear
6:35 AM 50.4 °F 38.7 °F 64% 30.21 in 10.0 mi Calm Calm - N/A   Clear
6:55 AM 50.9 °F 39.0 °F 64% 30.21 in 10.0 mi Calm Calm - N/A   Clear
7:15 AM 52.2 °F 39.9 °F 63% 30.21 in 10.0 mi Calm Calm - N/A   Clear
7:35 AM 53.8 °F 40.6 °F 61% 30.21 in 10.0 mi Calm Calm - N/A   Clear
7:55 AM 55.2 °F 42.1 °F 61% 30.21 in 10.0 mi Calm Calm - N/A   Clear
8:15 AM 56.7 °F 42.3 °F 59% 30.21 in 10.0 mi Calm Calm - N/A   Clear
8:35 AM 58.8 °F 42.3 °F 54% 30.21 in 10.0 mi Calm Calm - N/A   Clear
8:55 AM 60.1 °F 42.4 °F 52% 30.21 in 10.0 mi Calm Calm - N/A   Clear
9:15 AM 61.5 °F 43.9 °F 52% 30.21 in 10.0 mi Calm Calm - N/A   Clear
9:35 AM 63.5 °F 43.0 °F 47% 30.21 in 10.0 mi Calm Calm - N/A   Clear
9:55 AM 64.8 °F 44.6 °F 48% 30.21 in 10.0 mi Calm Calm - N/A   Clear
10:15 AM 65.5 °F 45.3 °F 48% 30.21 in 10.0 mi Calm Calm - N/A   Clear
10:35 AM 66.0 °F 45.7 °F 48% 30.21 in 10.0 mi Calm Calm - N/A   Clear
10:55 AM 66.9 °F 46.4 °F 48% 30.20 in 10.0 mi Calm Calm - N/A   Clear
11:15 AM 68.7 °F 47.3 °F 46% 30.20 in 10.0 mi Calm Calm - N/A   Clear
11:35 AM 68.9 °F 45.9 °F 44% 30.20 in 10.0 mi Calm Calm - N/A   Clear
11:55 AM 70.2 °F 45.1 °F 41% 30.19 in 10.0 mi Calm Calm - N/A   Clear
12:15 PM 71.2 °F 45.7 °F 40% 30.18 in 10.0 mi Calm Calm - N/A   Clear
12:35 PM 72.0 °F 45.9 °F 39% 30.18 in 10.0 mi Calm Calm - N/A   Clear
12:55 PM 72.9 °F 45.9 °F 38% 30.17 in 10.0 mi SSW 8.1 mph 21.9 mph N/A   Clear
1:15 PM 73.4 °F 46.0 °F 38% 30.16 in 10.0 mi Calm Calm - N/A   Clear
1:35 PM 73.9 °F 45.5 °F 36% 30.16 in 10.0 mi Calm Calm - N/A   Clear
1:55 PM 73.9 °F 45.1 °F 36% 30.15 in 10.0 mi Calm Calm - N/A   Clear
2:15 PM 74.8 °F 45.7 °F 35% 30.14 in 10.0 mi Calm Calm - N/A   Clear
2:35 PM 75.2 °F 44.8 °F 34% 30.14 in 10.0 mi Calm Calm - N/A   Clear
2:55 PM 75.7 °F 46.0 °F 35% 30.13 in 10.0 mi Calm Calm - N/A   Clear
3:15 PM 75.6 °F 46.4 °F 35% 30.12 in 10.0 mi South 3.5 mph 16.1 mph N/A   Clear
3:35 PM 75.7 °F 45.1 °F 34% 30.11 in 10.0 mi Calm Calm - N/A   Clear
3:55 PM 75.7 °F 45.0 °F 33% 30.10 in 10.0 mi South 6.9 mph 16.1 mph N/A   Clear
4:15 PM 75.6 °F 45.0 °F 34% 30.10 in 10.0 mi Calm Calm - N/A   Clear
4:55 PM 75.2 °F 46.2 °F 36% 30.10 in 10.0 mi Calm Calm - N/A   Clear
5:15 PM 75.4 °F 46.6 °F 36% 30.09 in 10.0 mi Calm Calm - N/A   Clear
5:35 PM 74.7 °F 46.2 °F 36% 30.09 in 10.0 mi Calm Calm - N/A   Clear
5:55 PM 74.3 °F 47.3 °F 38% 30.08 in 10.0 mi Calm Calm - N/A   Clear
6:15 PM 73.6 °F 46.6 °F 38% 30.08 in 10.0 mi Calm Calm - N/A   Clear
6:35 PM 72.7 °F 46.9 °F 40% 30.08 in 10.0 mi Calm Calm - N/A   Clear
6:55 PM 70.9 °F 47.3 °F 43% 30.07 in 10.0 mi Calm Calm - N/A   Clear
7:15 PM 69.8 °F 47.5 °F 45% 30.07 in 10.0 mi Calm Calm - N/A   Clear
7:35 PM 67.8 °F 47.3 °F 48% 30.07 in 10.0 mi Calm Calm - N/A   Clear
7:55 PM 66.4 °F 46.9 °F 50% 30.06 in 10.0 mi Calm Calm - N/A   Clear
8:15 PM 66.0 °F 46.4 °F 49% 30.06 in 10.0 mi Calm Calm - N/A   Clear
8:35 PM 65.3 °F 46.4 °F 50% 30.06 in 10.0 mi Calm Calm - N/A   Clear
8:55 PM 64.9 °F 46.2 °F 51% 30.06 in 10.0 mi Calm Calm - N/A   Clear
9:15 PM 64.6 °F 46.0 °F 51% 30.07 in 10.0 mi Calm Calm - N/A   Clear
9:35 PM 64.4 °F 45.9 °F 51% 30.07 in 10.0 mi Calm Calm - N/A   Clear
9:55 PM 63.5 °F 45.7 °F 52% 30.07 in 10.0 mi Calm Calm - N/A   Clear
10:15 PM 62.8 °F 45.5 °F 53% 30.07 in 10.0 mi Calm Calm - N/A   Clear
10:35 PM 62.2 °F 45.7 °F 55% 30.06 in 10.0 mi Calm Calm - N/A   Clear
10:55 PM 63.7 °F 45.9 °F 52% 30.06 in 10.0 mi Calm Calm - N/A   Clear
11:15 PM 62.8 °F 46.4 °F 55% 30.06 in 10.0 mi Calm Calm - N/A   Clear
11:35 PM 63.3 °F 46.2 °F 54% 30.06 in 10.0 mi Calm Calm - N/A   Clear
11:55 PM 63.0 °F 46.2 °F 54% 30.05 in 10.0 mi Calm Calm - N/A   Clear